Weather History for Newburgh, NY

Change the Weather History Date:

Tuesday, January 15, 2013

  Actual Average Record
Temperature  
Mean Temperature 32 °F -  
Max Temperature 35 °F 30 °F 60 °F (1992)
Min Temperature 30 °F 14 °F -16 °F (1988)
Degree Days  
Heating Degree Days 32    
Moisture  
Dew Point 25 °F    
Average Humidity 70    
Maximum Humidity 80    
Minimum Humidity 60    
Precipitation  
Precipitation 0.00 in - - ()
Sea Level Pressure  
Sea Level Pressure 30.29 in    
Wind  
Wind Speed 6 mph (ENE)    
Max Wind Speed 8 mph    
Max Gust Speed -    
Visibility 14 miles    
Events Rain    
Averages and records for this station are not official NWS values.
T = Trace of Precipitation, MM = Missing Value Source: NWS Daily Summary

Daily Weather History Graph

Daily Weather History Graph

Search for Another Location

Airport:

Trip Planner

Search our weather history database for the weather conditions in past years. The results will help you decide how hot, cold, wet, or windy it might be!

Date:

Astronomy

Jan. 15, 2013 Rise Set
Actual Time 7:20 AM EST 4:51 PM EST
Civil Twilight 6:49 AM EST 5:22 PM EST
Nautical Twilight 6:15 AM EST 5:56 PM EST
Astronomical Twilight 5:42 AM EST 6:29 PM EST
Moon 9:21 AM EST (1/15) 9:43 PM EST (1/15)
Length of Visible Light 10h 32m
Length of Day
9h 31m
Waxing Crescent, 19% of the Moon is Illuminated
Jan 15
Waxing Crescent
Jan 18
First Quarter
Jan 26
Full
Feb 3
Last Quarter
Feb 10
New

Hourly Weather History & Observations

Time (EST) Temp. Windchill Dew Point Humidity Pressure Visibility Wind Dir Wind Speed Gust Speed Precip Events Conditions
12:50 AM 35.6 °F 29.9 °F 26.6 °F 70% 30.30 in 7.0 mi East 6.9 mph - N/A Rain Light Rain
2:45 AM 33.8 °F 27.7 °F 26.6 °F 75% 30.27 in 10.0 mi ENE 6.9 mph - N/A   Overcast
4:50 AM 33.8 °F 27.7 °F 24.8 °F 70% 30.25 in 10.0 mi ENE 6.9 mph - N/A   Overcast
5:45 AM 32.0 °F 28.7 °F 24.8 °F 75% 30.28 in 10.0 mi Variable 3.5 mph - N/A   Overcast
6:45 AM 30.2 °F 25.4 °F 24.8 °F 80% 30.30 in 10.0 mi Variable 4.6 mph - N/A   Mostly Cloudy
7:45 AM 30.2 °F 24.3 °F 24.8 °F 80% 30.31 in 15.0 mi Variable 5.8 mph - N/A   Scattered Clouds
8:45 AM 32.0 °F 26.4 °F 24.8 °F 75% 30.35 in 20.0 mi Variable 5.8 mph - N/A   Scattered Clouds
9:45 AM 33.8 °F - 24.8 °F 70% 30.36 in 20.0 mi Calm Calm - N/A   Mostly Cloudy
10:45 AM 33.8 °F 27.7 °F 24.8 °F 70% 30.34 in 20.0 mi Variable 6.9 mph - N/A   Mostly Cloudy
11:45 AM 35.6 °F 29.9 °F 23.0 °F 60% 30.33 in 20.0 mi Variable 6.9 mph - N/A   Mostly Cloudy
12:45 PM 35.6 °F 30.7 °F 24.8 °F 65% 30.30 in 20.0 mi Variable 5.8 mph - N/A   Mostly Cloudy
1:45 PM 35.6 °F 30.7 °F 23.0 °F 60% 30.28 in 20.0 mi Variable 5.8 mph - N/A   Mostly Cloudy
2:45 PM 35.6 °F 30.7 °F 24.8 °F 65% 30.27 in 20.0 mi Variable 5.8 mph - N/A   Mostly Cloudy
3:45 PM 35.6 °F 31.7 °F 24.8 °F 65% 30.29 in 20.0 mi Variable 4.6 mph - N/A   Mostly Cloudy
4:45 PM 33.8 °F 30.8 °F 26.6 °F 75% 30.28 in 20.0 mi Variable 3.5 mph - N/A   Mostly Cloudy
5:46 PM 33.8 °F 29.6 °F 24.8 °F 70% 30.28 in 10.0 mi Variable 4.6 mph - N/A   Mostly Cloudy
6:45 PM 33.8 °F 29.6 °F 24.8 °F 70% 30.30 in 10.0 mi Variable 4.6 mph - N/A   Mostly Cloudy
7:45 PM 33.8 °F 28.6 °F 24.8 °F 70% 30.28 in 10.0 mi Variable 5.8 mph - N/A   Mostly Cloudy
8:45 PM 33.8 °F 28.6 °F 23.0 °F 65% 30.26 in 10.0 mi ENE 5.8 mph - N/A   Mostly Cloudy
9:45 PM 33.8 °F 27.0 °F 23.0 °F 65% 30.24 in 10.0 mi ENE 8.1 mph - N/A   Mostly Cloudy
10:45 PM 33.8 °F 27.7 °F 23.0 °F 65% 30.25 in 10.0 mi ESE 6.9 mph - N/A   Overcast